Weather in Krasyukovskaya

Russia / Rostov Oblast     47°31′36″N   40°05′18″E
temp.,
°C
wind,
m/s
gust,
m/s
humid.,
%
clouds,
%
prec.,
mm/h
press.,
hPa
HPBL,
m
19 september, sun
sun1900:00+16ese5115840 0.0 1014336
03:00+15ese4957100 0.0 1014229
06:00+15ese4860100 0.0 1013201
09:00+18se5963100 0.0 1013468
12:00+21sse61052100 0.0 10121059
15:00+23sse5946100 0.1 1011770
18:00+22ssw5846100 0.1 1010472
21:00+18s61386100 1.7 1011663
20 september, mon
mon2000:00+17s31090100 2.5 1010502
03:00+17sse3684100 3.3 1010284
06:00+17s369082 0.1 1010245
09:00+20sw577118 0.1 1010575
12:00+23wsw6841100 0.0 10111318
15:00+24wsw68375 0.0 10111596
18:00+20sw59425 0.0 1012441
21:00+16wsw39615 0.0 1013247
21 september, tue
tue2100:00+16sw2767100 0.0 1013262
03:00+16sw2377100 0.1 101356
06:00+15nnw2377100 0.2 1013214
09:00+16sw2372100 0.3 1014345
12:00+15wnw3371100 0.2 1014375
15:00+16wsw456166 0.3 1014651
18:00+16ssw345761 0.0 1013217
21:00+13sw387349 0.0 1014193
22 september, wed
wed2200:00+12nw347446 0.0 101472
03:00+11nw33781 0.0 101547
06:00+9wnw35851 0.0 101697
09:00+13nw33575 0.0 1016746
12:00+16w334229 0.0 10161623
15:00+17wnw433617 0.0 10151802
18:00+15wnw344316 0.0 101590
21:00+11nw35598 0.0 1016124
23 september, thu
thu2300:00+10nw23685 0.0 101649
03:00+9nnw227257 0.0 101513
06:00+8ne1172100 0.0 101510
09:00+12ene0055100 0.0 1015316
12:00+16ssw0141100 0.0 10141021
15:00+15ese3245100 0.0 1012815
18:00+12e4678100 0.1 1012280
21:00+12ene4780100 0.4 1011420